EN

Hourly Weather Dzigorzew

Today, 28 October, Wednesday

Time Temperature Precipitation Wind Pressure Humidity
00:00 +9°C° 0 mm 2 mps 748 mmHg 82%
01:00 +9°C° 0 mm 2 mps 748 mmHg 84%
02:00 +8°C° 0 mm 2 mps 748 mmHg 84%
03:00 +8°C° 0 mm 2 mps 748 mmHg 83%
04:00 +8°C° 0 mm 2 mps 748 mmHg 83%
05:00 +8°C° 0 mm 2 mps 748 mmHg 82%
06:00 +8°C° 0 mm 2 mps 748 mmHg 81%
07:00 +8°C° 0 mm 3 mps 748 mmHg 80%
08:00 +9°C° 0 mm 3 mps 748 mmHg 76%
09:00 +11°C° 0 mm 4 mps 748 mmHg 73%
10:00 +12°C° 0 mm 5 mps 748 mmHg 69%
11:00 +13°C° 0 mm 5 mps 748 mmHg 65%
12:00 +14°C° 0 mm 5 mps 748 mmHg 60%
13:00 +15°C° 0 mm 5 mps 747 mmHg 56%
14:00 +14°C° 0 mm 4 mps 747 mmHg 57%
15:00 +13°C° 0 mm 4 mps 748 mmHg 59%
16:00 +13°C° 0 mm 3 mps 748 mmHg 61%
17:00 +12°C° 0 mm 3 mps 748 mmHg 62%
18:00 +12°C° 0 mm 3 mps 748 mmHg 62%
19:00 +12°C° 0 mm 3 mps 748 mmHg 63%
20:00 +11°C° 0 mm 3 mps 748 mmHg 66%
21:00 +11°C° 0 mm 3 mps 748 mmHg 69%
22:00 +11°C° 0 mm 3 mps 749 mmHg 72%
23:00 +10°C° 0 mm 3 mps 749 mmHg 75%

Tomorrow, 29 October, Thursday

Time Temperature Precipitation Wind Pressure Humidity
00:00 +10°C° 0 mm 3 mps 749 mmHg 77%
01:00 +9°C° 0 mm 3 mps 749 mmHg 79%
02:00 +9°C° 0 mm 3 mps 748 mmHg 81%
03:00 +8°C° 0 mm 4 mps 748 mmHg 83%
04:00 +8°C° 0 mm 4 mps 748 mmHg 84%
05:00 +8°C° 0 mm 4 mps 748 mmHg 85%
06:00 +8°C° 0 mm 4 mps 748 mmHg 85%
07:00 +8°C° 0 mm 4 mps 748 mmHg 86%
08:00 +10°C° 0 mm 4 mps 748 mmHg 80%
09:00 +10°C° 0 mm 5 mps 748 mmHg 74%
10:00 +11°C° 0 mm 6 mps 747 mmHg 68%
11:00 +11°C° 0 mm 6 mps 747 mmHg 70%
12:00 +11°C° 0 mm 6 mps 747 mmHg 72%
13:00 +12°C° 0 mm 5 mps 747 mmHg 74%
14:00 +10°C° 0.3 mm 5 mps 747 mmHg 77%
15:00 +10°C° 0.3 mm 5 mps 747 mmHg 79%
16:00 +9°C° 0.3 mm 5 mps 747 mmHg 81%
17:00 +9°C° 0.1 mm 5 mps 748 mmHg 81%
18:00 +8°C° 0.1 mm 5 mps 748 mmHg 81%
19:00 +8°C° 0.1 mm 5 mps 749 mmHg 80%
20:00 +7°C° 0 mm 5 mps 750 mmHg 80%
21:00 +7°C° 0 mm 5 mps 750 mmHg 81%
22:00 +7°C° 0 mm 5 mps 751 mmHg 81%
23:00 +6°C° 0 mm 5 mps 751 mmHg 82%

Day after tomorrow, 30 October, Friday

Time Temperature Precipitation Wind Pressure Humidity
00:00 +6°C° 0 mm 5 mps 751 mmHg 83%
01:00 +6°C° 0 mm 5 mps 751 mmHg 84%
02:00 +6°C° 0 mm 5 mps 752 mmHg 86%
03:00 +5°C° 0 mm 5 mps 752 mmHg 88%
04:00 +5°C° 0 mm 5 mps 752 mmHg 91%
05:00 +5°C° 0 mm 4 mps 752 mmHg 91%
06:00 +4°C° 0 mm 4 mps 752 mmHg 90%
07:00 +4°C° 0 mm 3 mps 752 mmHg 90%
08:00 +5°C° 0 mm 4 mps 752 mmHg 84%
09:00 +6°C° 0 mm 4 mps 752 mmHg 77%
10:00 +8°C° 0 mm 4 mps 752 mmHg 70%
11:00 +8°C° 0.1 mm 4 mps 752 mmHg 72%
12:00 +8°C° 0.1 mm 4 mps 751 mmHg 74%
13:00 +8°C° 0.1 mm 5 mps 751 mmHg 76%
14:00 +8°C° 0.8 mm 5 mps 750 mmHg 81%
15:00 +7°C° 0.8 mm 5 mps 750 mmHg 86%
16:00 +7°C° 0.8 mm 5 mps 749 mmHg 91%
17:00 +8°C° 1.3 mm 6 mps 749 mmHg 92%
18:00 +9°C° 1.3 mm 6 mps 749 mmHg 93%
19:00 +10°C° 1.3 mm 6 mps 748 mmHg 95%
20:00 +10°C° 1.3 mm 6 mps 748 mmHg 94%
21:00 +10°C° 1.3 mm 7 mps 749 mmHg 94%
22:00 +11°C° 1.3 mm 7 mps 749 mmHg 94%
23:00 +10°C° 0.8 mm 6 mps 749 mmHg 94%

31 October, Saturday

Time Temperature Precipitation Wind Pressure Humidity
00:00 +9°C° 0.8 mm 5 mps 749 mmHg 94%
01:00 +8°C° 0.8 mm 4 mps 750 mmHg 94%
02:00 +8°C° 0 mm 4 mps 751 mmHg 94%
03:00 +8°C° 0 mm 3 mps 751 mmHg 94%
04:00 +7°C° 0 mm 3 mps 752 mmHg 93%
05:00 +7°C° 0 mm 3 mps 753 mmHg 93%
06:00 +7°C° 0 mm 2 mps 754 mmHg 93%
07:00 +6°C° 0 mm 2 mps 754 mmHg 93%
08:00 +7°C° 0 mm 2 mps 755 mmHg 86%
09:00 +9°C° 0 mm 1 mps 755 mmHg 79%
10:00 +10°C° 0 mm 1 mps 756 mmHg 73%
11:00 +11°C° 0 mm 1 mps 756 mmHg 68%
12:00 +11°C° 0 mm 1 mps 756 mmHg 63%
13:00 +12°C° 0 mm 1 mps 756 mmHg 59%
14:00 +12°C° 0 mm 1 mps 756 mmHg 62%
15:00 +11°C° 0 mm 1 mps 756 mmHg 65%
16:00 +9°C° 0 mm 0 mps 756 mmHg 68%
17:00 +10°C° 0 mm 1 mps 756 mmHg 70%
18:00 +9°C° 0 mm 1 mps 756 mmHg 73%
19:00 +9°C° 0 mm 1 mps 757 mmHg 75%
20:00 +7°C° 0 mm 2 mps 757 mmHg 77%
21:00 +7°C° 0 mm 2 mps 757 mmHg 79%
22:00 +7°C° 0 mm 2 mps 757 mmHg 81%
23:00 +6°C° 0 mm 2 mps 757 mmHg 83%

1 November, Sunday

Time Temperature Precipitation Wind Pressure Humidity
00:00 +6°C° 0 mm 2 mps 757 mmHg 85%
01:00 +5°C° 0 mm 3 mps 757 mmHg 87%
02:00 +5°C° 0 mm 3 mps 757 mmHg 88%
03:00 +4°C° 0 mm 3 mps 756 mmHg 89%
04:00 +4°C° 0 mm 3 mps 756 mmHg 90%
05:00 +4°C° 0 mm 3 mps 756 mmHg 90%
06:00 +4°C° 0 mm 3 mps 756 mmHg 90%
07:00 +4°C° 0 mm 3 mps 756 mmHg 91%
08:00 +5°C° 0 mm 4 mps 756 mmHg 84%
09:00 +7°C° 0 mm 4 mps 756 mmHg 77%
10:00 +8°C° 0 mm 5 mps 755 mmHg 70%
11:00 +9°C° 0 mm 5 mps 755 mmHg 67%
12:00 +10°C° 0 mm 5 mps 755 mmHg 65%
13:00 +10°C° 0 mm 5 mps 755 mmHg 62%
14:00 +10°C° 0 mm 5 mps 754 mmHg 64%
15:00 +9°C° 0 mm 5 mps 754 mmHg 67%
16:00 +10°C° 0 mm 4 mps 754 mmHg 69%
17:00 +8°C° 0 mm 5 mps 754 mmHg 71%
18:00 +8°C° 0 mm 5 mps 754 mmHg 72%
19:00 +7°C° 0 mm 5 mps 754 mmHg 74%
20:00 +7°C° 0 mm 5 mps 753 mmHg 75%
21:00 +7°C° 0 mm 5 mps 753 mmHg 77%
22:00 +6°C° 0 mm 5 mps 753 mmHg 78%
23:00 +6°C° 0 mm 4 mps 753 mmHg 79%

2 November, Monday

Time Temperature Precipitation Wind Pressure Humidity
00:00 +6°C° 0 mm 4 mps 753 mmHg 80%
01:00 +6°C° 0 mm 4 mps 753 mmHg 81%
02:00 +6°C° 0 mm 4 mps 753 mmHg 81%
03:00 +6°C° 0 mm 4 mps 753 mmHg 82%
04:00 +6°C° 0 mm 4 mps 752 mmHg 82%
05:00 +5°C° 0 mm 4 mps 752 mmHg 82%
06:00 +5°C° 0 mm 4 mps 752 mmHg 83%
07:00 +5°C° 0 mm 4 mps 752 mmHg 83%
08:00 +6°C° 0 mm 4 mps 752 mmHg 79%
09:00 +7°C° 0 mm 4 mps 752 mmHg 74%
10:00 +9°C° 0 mm 5 mps 752 mmHg 70%
11:00 +10°C° 0 mm 5 mps 752 mmHg 68%
12:00 +10°C° 0 mm 5 mps 752 mmHg 65%
13:00 +12°C° 0 mm 5 mps 752 mmHg 63%
14:00 +12°C° 0 mm 4 mps 752 mmHg 64%
15:00 +12°C° 0 mm 4 mps 752 mmHg 65%
16:00 +11°C° 0 mm 4 mps 752 mmHg 66%
17:00 +11°C° 0 mm 4 mps 752 mmHg 65%
18:00 +11°C° 0 mm 4 mps 752 mmHg 65%
19:00 +9°C° 0 mm 5 mps 752 mmHg 64%
20:00 +9°C° 0 mm 5 mps 752 mmHg 65%
21:00 +9°C° 0 mm 5 mps 752 mmHg 66%
22:00 +8°C° 0 mm 5 mps 752 mmHg 66%
23:00 +8°C° 0 mm 4 mps 752 mmHg 69%
Show more